Location: Kellogg
(38.0159°N, 90.0546°W)
Time: 06:24:41
(UTC+00:00)

Vanguard 1 Rocket - Pass Details

Date: 14 September 2024
Orbit: 650 x 4218 km, 34.3° (Epoch: 05 October)

Event Time Altitude Azimuth Distance (km) Brightness Sun altitude
Rises 06:34:53 0° 182° (S) 4,631 - -47.8°
Reaches altitude 10° 06:38:53 10° 164° (SSE) 4,170 - -47.6°
Maximum altitude 06:46:20 19° 124° (SE) 4,390 - -47.2°
Exits shadow 06:47:26 19° 119° (ESE) 4,524 10.8 -47.1°
Drops below altitude 10° 06:56:48 10° 88° (E) 6,170 11.8 -46.4°
Sets 07:04:57 0° 75° (ENE) 7,828 12.6 -45.8°
